Forside
METAR-TAF:

METAR-TAF

Lufthavne :

Branch County Memorial Airport

Coldwater, Michigan, USA

Breddekreds: 41-56N, længdekreds: 085-03-09W, højde: 292 m

Aktuelle vejr

Denne rapport blev lavet for 28 minutter siden, kl. 17:15 UTC
Vind 13 kt fra østsydøst
Temperatur 0°C
Fugtighed 59%
Tryk 1021 hPa
Sigt: 16.1 km
Brudte skyer i en højde af 8000 ft

METAR: KOEB 171715Z AUTO 12013KT 10SM BKN080 00/M07 A3015 RMK AO2 T00001071

Tid: 12:43 (17:43 UTC)


TAF: fraværende

Vejrobservationer og prognoser fra mere end 4000 lufthavne (METAR og TAF).

De gule og røde prikker repræsenterer de meteorologiske stationer.

Flyt musen over at se navnet på stationen.

Så klik over at se vejr observationer og prognoser.

At skifte det kort: Klik på de grønne knapper med et sort kors for at zoome ind; på den grønne knap med en bindestreg for at zoome ud; eller på de grønne pile for tilstødende kort.


METAR-TAF: